Погода в Великой Березне

Украина / Хмельницкая область     50°02′32″N   27°25′46″E
темп.,
°C
ветер,
м/с
пор.,
м/с
влажн.,
%
обл.,
%
осадки,
мм/ч
давл.,
гПа
погр.,
м
11 мая, вт
вт1100:00+9юв37810 0.0 1023115
03:00+8юв36820 0.0 1024109
06:00+7вюв36800 0.0 1023102
09:00+12вюв46610 0.0 1023397
12:00+16вюв45460 0.0 1021981
15:00+18вюв34500 0.0 10201138
18:00+18в45601 0.0 10191249
21:00+13всв49831 0.0 1018153
12 мая, ср
ср1200:00+11в39937 0.0 1018182
03:00+11в48945 0.0 1016167
06:00+8в5109744 0.0 1017376
09:00+10вюв79720 0.0 1017767
12:00+12в786847 0.0 10171115
15:00+13вюв786027 0.0 10161355
18:00+11вюв576599 0.0 10141280
21:00+10вюв3772100 0.0 1013321
13 мая, чт
чт1300:00+6юв3783100 0.0 1012135
03:00+6ююв3108593 0.0 1010217
06:00+6юв4128556 0.0 1009296
09:00+9ююв71482100 0.0 1008666
12:00+12ююв81274100 0.0 10081005
15:00+16ююв8126961 0.1 10061476
18:00+16ю81273100 0.2 10061304
21:00+12ююв61382100 0.3 1007723
14 мая, пт
пт1400:00+11юв51293100 0.4 1007596
03:00+10ююв5119399 0.5 1007428
06:00+10ююв4994100 0.1 1007370
09:00+12ююз4693100 0.8 1008309
12:00+16ююз357653 0.4 1008634
15:00+19ююз4558100 1.6 10081708
18:00+18зюз24677 1.6 1008741
21:00+13ююз228397 3.8 100912
15 мая, сб
сб1500:00+11зсз3391100 0.3 101039
03:00+10сз3493100 0.3 101162
06:00+9зсз359585 0.0 1012103
09:00+14зсз46760 0.0 1012485
12:00+17зсз56581 0.0 10131285
15:00+18зюз665858 0.1 10101443
18:00
21:00+15зсз116787 0.1 101311